Location: Pedimozza
(42.0500°N, 9.3500°E)
Time: 08:36:08
(UTC+00:00)

Unknown - Pass Details

Date: 19 August 2019
Orbit: 549 x 550 km, 53.0° (Epoch: 16 October)

Event Time Altitude Azimuth Distance (km) Brightness Sun altitude
Rises 20:18:00 0° 303° (WNW) 2,725 8.7 -20.3°
Reaches altitude 10° 20:20:16 10° 299° (WNW) 1,828 7.4 -20.6°
Maximum altitude 20:24:18 51° 223° (SW) 696 4.0 -21.2°
Enters shadow 20:24:46 48° 198° (SSW) 722 4.0 -21.2°
